导读 | 星芒AI

IPERDRONE.0 是一颗由意大利公司 Iper Italia 研发的小型卫星,主要用于无人机交通管理与空域监控。该卫星通过提供实时数据传输与定位服务,增强无人机在复杂空域中的安全性和可控性。其设计目标是支持未来城市空中交通系统,提高无人机操作的效率与合规性。IPERDRONE.0 采用先进通信技术,能够与地面控制中心和无人机之间实现高效连接,为全球无人机行业提供创新解决方案。

基本信息
目录编号:
60520
目录名称:
IPERDRONE.0
国际标识:
2024-149BE
轨道中心:
EARTH
卫星名称:
IPERDRONE.0 技术验证卫星
卫星全名:
卫星状态:
在轨 (已飞行484 天)
发射日期:
2024-08-16 UTC
国别 :
意大利 (IT)
星等 :
--
轨道信息
数据来源 国际轨道数据
星历时间: 2025-12-13T00:55:00+0800
16小时前
查看轨道信息
半长轴: 6805.448km
偏心率: 0.0003496
轨道倾角: 97.394°
近地点辐角 197.674°
升交点赤经 68.753°
平近点角 162.439°
近地点: 424.933km
远地点: 429.693km
周期: 93.120分钟
每日圈数: 15.463852
详细信息
使用方式:
暂无
2D轨道图
3D轨道图
轨道高度分析图
轨道倾角分析图
轨道综合分析图
查看轨道综合分析图